Wind_Speed
10 12 15 17 19 20 23 25 27 29 30 32 34 36 37 38 39 40 40 41 42 43 42 41 40 41 40 41 42 43 43 44 45 46 46 46 46 47 48 49 50 49 50 52
7 10 13 16 18 21 23 26 28 30 32 32 33 34 35 37 38 38 39 39 40 40 39 38 36 37 38 38 37 37 38 38 39 41 43 45 46 47 47 48 50 50 52 53
4 7 10 12 14 17 20 23 26 28 29 30 31 32 33 34 35 35 35 36 36 34 33 34 33 32 32 33 32 33 34 35 36 38 40 41 44 45 46 48 49 51 54 55
6 8 9 11 13 15 18 20 22 24 25 26 27 27 28 29 30 31 31 31 32 31 30 30 30 29 29 29 30 31 33 34 36 38 40 42 44 46 48 50 51 52 53 54
8 8 10 11 13 14 16 18 19 20 22 23 24 24 24 24 24 24 25 26 27 27 27 27 26 27 28 29 31 32 33 34 36 38 40 42 43 46 48 49 51 52 53 53
9 10 11 11 13 14 15 16 16 17 18 18 19 20 20 20 20 20 21 22 22 22 23 23 23 25 27 28 30 32 33 34 36 37 39 40 42 44 45 47 48 50 51 51
12 13 13 13 14 14 14 14 14 14 14 13 14 15 16 16 16 16 17 17 17 18 19 21 22 24 25 27 29 30 32 33 35 36 38 39 41 43 44 45 46 47 47 47
14 14 14 15 14 14 13 13 12 12 12 11 11 12 13 13 14 14 14 15 15 16 18 19 20 22 23 25 26 27 29 30 32 34 36 38 40 41 42 43 43 43 43 42
15 15 15 14 13 13 12 12 11 10 10 10 10 11 11 11 12 12 13 13 14 15 17 18 19 20 21 22 23 24 26 28 30 32 34 35 36 37 37 37 37 37 37 36
17 16 16 15 14 13 12 11 10 9 8 8 9 9 9 10 10 11 12 12 13 14 15 16 17 18 19 19 21 23 24 26 27 29 30 32 32 32 32 31 31 30 29 28
17 17 16 15 14 12 11 10 9 8 7 7 7 8 8 9 10 10 11 12 13 13 14 15 15 16 16 17 19 21 22 23 25 26 28 28 27 27 26 25 24 23 22 20
18 17 16 14 13 11 9 8 8 7 7 7 7 7 7 8 9 10 11 12 12 13 13 13 14 14 15 16 18 19 20 21 23 24 25 25 24 23 22 20 19 17 16 14
18 17 16 14 12 10 8 7 7 6 6 6 5 6 6 8 8 10 11 11 11 12 12 13 13 13 14 15 16 18 19 20 20 22 22 22 21 20 19 17 15 13 12 10
18 17 16 14 12 10 8 7 6 6 5 5 5 6 7 8 9 10 11 11 12 12 13 13 13 13 14 14 15 16 17 18 18 19 19 19 19 18 16 15 13 11 10 10
18 17 16 14 12 10 8 7 6 5 5 5 5 6 7 8 10 11 12 13 13 12 12 12 13 13 13 13 14 15 15 16 17 17 18 18 17 16 15 14 13 12 11 11
18 17 16 14 12 10 8 7 6 6 5 6 6 7 8 10 11 12 13 13 13 12 13 13 13 12 12 12 12 13 14 15 15 16 16 16 16 16 15 14 14 13 13 13
18 18 16 14 12 10 9 7 6 6 6 6 7 8 10 11 11 12 13 13 13 13 13 13 13 12 11 11 11 12 12 13 13 14 14 15 15 15 14 14 13 13 13 14
18 18 16 14 12 10 8 7 6 6 6 7 8 9 11 12 12 13 14 14 14 14 13 14 13 12 10 9 9 10 10 11 11 12 13 13 13 13 14 13 13 14 14 14
18 18 16 14 12 10 8 6 6 6 6 7 8 10 11 13 14 15 15 15 15 14 14 13 12 10 8 7 7 8 9 10 10 10 11 11 11 12 12 12 13 13 13 14
18 18 16 15 12 10 7 6 5 6 6 7 9 10 12 13 15 15 16 16 16 15 14 13 12 10 8 7 7 8 8 9 9 9 9 9 9 9 10 10 10 11 11 11
17 17 16 14 12 10 7 6 5 5 6 7 9 11 12 14 15 16 17 16 16 15 15 14 13 11 9 8 8 8 8 8 8 8 8 8 8 8 7 8 8 8 8 8
16 16 16 14 12 9 7 6 5 5 5 6 8 10 12 14 16 17 17 16 16 15 16 15 15 13 11 11 9 8 7 7 7 7 7 7 7 6 6 6 6 6 6 6
15 15 15 14 11 9 7 5 5 5 5 6 7 9 11 13 15 17 18 17 16 15 16 16 16 16 14 12 11 9 8 7 7 7 7 6 6 5 5 4 4 4 5 5
14 14 14 13 11 9 7 5 5 4 5 5 7 8 10 12 14 16 17 17 16 16 16 16 17 17 16 14 12 10 9 8 7 7 7 6 6 5 4 4 4 3 4 4
14 13 13 12 10 8 7 5 5 4 4 5 6 8 9 11 12 15 16 17 16 16 16 17 18 18 18 16 14 13 12 10 9 8 7 6 6 6 5 5 4 4 5 5
13 12 12 11 10 8 7 6 5 5 4 4 5 7 8 9 11 13 14 15 16 16 15 15 16 17 18 17 16 15 14 13 11 10 9 8 8 8 7 6 6 6 6 7
13 12 11 11 9 8 7 6 5 5 4 4 5 6 7 8 9 11 12 14 15 16 15 15 15 15 16 17 17 16 15 15 14 13 12 11 11 10 10 9 9 9 9 9
Wind_Direction
230 233 236 241 244 247 249 251 253 254 256 258 260 260 261 262 264 266 269 270 270 273 274 275 275 274 275 275 274 273 273 274 274 276 276 276 278 278 280 281 280 279 278 279
247 247 249 249 252 255 256 257 257 258 261 262 265 266 266 267 268 271 272 273 274 278 279 279 281 278 277 278 277 277 276 277 277 277 277 277 279 279 280 279 277 277 278 279
283 266 262 262 263 263 263 262 261 261 262 264 266 266 268 271 273 275 274 276 278 279 279 280 282 280 278 277 274 273 275 275 275 277 278 278 279 279 278 277 276 278 280 282
303 287 278 279 272 270 270 267 266 265 265 266 268 270 271 272 272 275 276 277 277 278 278 280 280 278 276 276 276 276 276 275 276 276 277 278 278 278 277 277 279 280 282 282
315 303 294 284 280 278 276 274 273 271 269 269 270 271 272 272 272 272 273 274 274 273 272 274 276 276 277 279 280 279 279 280 280 280 281 282 282 283 283 283 283 284 285 285
329 318 309 301 293 288 286 283 280 277 275 274 272 270 272 273 273 273 273 274 274 274 273 274 276 277 279 281 282 283 284 285 286 287 288 288 288 288 287 287 287 287 287 286
337 328 320 314 308 303 296 293 289 286 283 278 272 271 273 274 273 273 275 276 277 277 277 279 282 283 284 285 287 289 291 291 292 292 293 292 292 291 290 290 290 289 289 289
342 335 328 323 318 312 307 301 295 291 288 285 280 274 274 276 276 276 277 278 280 283 285 287 289 290 291 292 294 295 296 297 298 299 299 299 297 296 294 293 293 293 292 292
346 341 336 331 325 321 316 310 302 296 291 287 285 282 280 282 282 282 284 287 290 292 293 295 297 298 298 300 301 303 305 306 305 305 305 305 303 302 301 299 298 296 296 296
347 344 340 335 328 323 321 318 314 308 302 298 295 291 288 290 292 295 297 298 299 300 301 304 304 305 306 307 308 309 311 312 313 313 313 313 312 310 308 306 305 304 303 303
350 346 341 338 332 326 322 320 319 314 308 304 301 299 299 301 305 308 309 310 311 312 312 312 312 312 313 313 315 316 318 320 322 323 323 323 322 321 319 317 316 315 315 315
352 349 345 341 337 332 325 321 320 317 313 310 307 307 311 314 317 319 320 320 319 317 316 318 318 317 318 321 322 324 325 327 329 330 331 333 334 333 332 330 330 332 334 336
356 353 350 346 340 336 329 323 325 325 321 322 324 326 329 331 331 330 330 329 327 324 322 322 323 323 324 327 329 330 331 332 334 336 338 340 342 343 344 346 347 352 359 6
358 356 354 351 347 343 338 333 333 333 333 339 343 345 345 343 341 339 337 335 332 329 328 326 327 326 325 327 331 334 337 339 342 344 347 350 352 355 358 2 8 17 27 37
359 358 357 355 353 351 348 344 344 349 353 355 354 356 355 352 347 344 342 339 337 335 333 331 327 327 327 329 332 338 342 346 350 353 357 0 4 8 13 20 29 39 49 58
1 0 360 358 355 354 352 351 352 359 6 8 8 6 2 356 351 348 346 344 341 338 335 333 330 328 328 331 334 340 346 350 355 1 5 10 15 20 27 36 45 54 63 72
2 2 1 360 360 358 357 357 0 8 14 16 14 9 4 360 356 353 350 347 344 340 338 337 335 331 331 333 338 343 349 355 1 7 13 18 24 30 38 47 55 63 71 79
2 4 3 1 1 1 360 1 5 12 18 18 16 12 7 4 2 359 356 352 350 347 344 341 338 335 332 335 343 350 356 1 6 12 18 24 30 38 45 53 62 70 77 84
1 4 4 3 2 2 2 3 5 11 17 19 16 12 10 8 5 3 1 360 357 354 351 348 346 346 346 348 353 359 2 6 10 16 21 27 33 42 50 59 67 74 80 84
0 3 3 3 2 2 0 359 1 9 15 17 17 14 11 9 7 6 6 5 3 2 1 2 3 2 2 3 3 5 7 8 12 17 22 28 34 42 52 61 70 77 82 84
357 1 2 1 2 2 359 356 358 7 12 15 16 15 12 11 10 10 9 8 8 9 10 11 12 12 12 9 5 4 4 6 12 17 21 26 33 41 50 60 69 75 79 82
353 357 359 359 359 358 356 352 354 360 7 12 13 13 13 13 14 14 13 13 14 16 17 17 16 17 16 13 9 5 4 6 9 14 18 23 30 37 45 55 63 68 71 75
348 353 355 356 356 353 350 347 346 350 357 3 7 9 10 12 15 16 16 16 16 18 19 19 19 19 17 15 13 11 11 11 13 15 16 18 23 30 38 47 56 63 64 68
341 348 351 352 352 349 344 339 337 339 347 353 357 2 7 10 13 16 17 18 20 22 23 23 23 23 22 21 21 23 24 23 22 20 18 21 28 33 39 45 52 58 62 67
333 340 345 347 347 343 336 327 322 325 335 343 349 355 2 7 11 15 16 19 23 26 27 28 27 27 28 30 32 33 33 33 32 30 30 34 39 42 49 55 61 67 71 70
324 332 337 339 339 335 328 317 310 311 318 330 340 347 354 2 9 12 14 19 25 28 29 29 28 29 31 32 34 36 37 39 42 43 45 50 54 56 62 69 72 75 76 74
314 322 327 330 331 327 320 309 301 299 300 310 326 336 345 354 3 8 11 17 24 28 29 29 29 29 31 34 36 38 40 43 47 51 54 59 61 63 68 71 75 79 81 81
Height
5746 5748 5750 5751 5752 5754 5755 5755 5757 5757 5758 5758 5759 5760 5760 5761 5761 5762 5762 5763 5763 5763 5763 5763 5762 5762 5761 5760 5760 5760 5759 5757 5756 5755 5754 5752 5751 5749 5747 5745 5743 5740 5737 5735
5745 5746 5747 5748 5749 5749 5750 5750 5750 5751 5751 5751 5751 5752 5752 5753 5753 5753 5754 5754 5754 5754 5753 5753 5752 5751 5751 5750 5749 5748 5747 5746 5745 5743 5742 5740 5738 5736 5734 5732 5729 5727 5723 5721
5744 5744 5744 5745 5745 5744 5744 5744 5744 5744 5745 5744 5744 5744 5744 5744 5744 5745 5745 5745 5745 5745 5745 5744 5743 5742 5741 5740 5739 5738 5737 5736 5734 5732 5731 5729 5727 5724 5722 5719 5716 5713 5710 5707
5742 5743 5742 5744 5740 5740 5739 5738 5738 5738 5738 5738 5737 5737 5737 5737 5737 5737 5737 5737 5737 5737 5736 5735 5734 5733 5732 5732 5730 5729 5728 5726 5724 5722 5720 5718 5716 5713 5709 5706 5702 5699 5695 5692
5741 5740 5739 5738 5737 5735 5734 5733 5732 5732 5731 5731 5730 5730 5730 5730 5730 5730 5729 5729 5729 5728 5728 5727 5727 5726 5725 5723 5722 5720 5719 5716 5714 5712 5709 5706 5703 5700 5696 5693 5689 5685 5681 5677
5739 5737 5736 5736 5733 5731 5731 5729 5727 5726 5725 5725 5725 5725 5724 5724 5723 5723 5722 5722 5722 5721 5721 5720 5719 5718 5717 5715 5713 5711 5709 5706 5704 5701 5698 5695 5691 5687 5683 5679 5675 5671 5667 5662
5737 5735 5733 5731 5729 5728 5727 5726 5723 5721 5720 5720 5719 5719 5719 5718 5718 5718 5717 5716 5716 5715 5715 5714 5713 5711 5710 5708 5705 5703 5700 5697 5694 5691 5687 5684 5680 5675 5671 5666 5661 5657 5653 5648
5735 5732 5732 5727 5725 5724 5723 5720 5719 5717 5717 5716 5715 5715 5715 5714 5714 5713 5713 5712 5711 5710 5709 5708 5706 5705 5703 5700 5698 5695 5692 5689 5685 5682 5678 5673 5668 5664 5659 5654 5649 5644 5640 5636
5734 5732 5728 5725 5722 5720 5718 5717 5715 5714 5714 5713 5712 5712 5712 5711 5710 5710 5709 5708 5707 5705 5704 5702 5700 5698 5696 5694 5691 5688 5685 5681 5677 5673 5668 5663 5658 5653 5648 5643 5638 5633 5629 5625
5731 5728 5725 5722 5720 5718 5716 5714 5713 5712 5711 5711 5710 5709 5709 5708 5707 5706 5705 5704 5703 5701 5699 5697 5695 5693 5690 5688 5685 5682 5679 5675 5670 5665 5660 5655 5649 5644 5639 5634 5629 5625 5621 5617
5730 5727 5723 5721 5718 5716 5714 5712 5711 5710 5710 5709 5708 5708 5707 5706 5705 5704 5702 5701 5699 5697 5695 5693 5690 5688 5686 5683 5680 5677 5673 5669 5665 5660 5654 5649 5643 5638 5632 5627 5623 5619 5615 5612
5730 5726 5722 5719 5717 5715 5713 5711 5710 5709 5708 5707 5707 5706 5705 5704 5703 5701 5699 5697 5695 5693 5691 5689 5687 5684 5682 5679 5676 5673 5669 5665 5661 5656 5651 5645 5639 5634 5629 5624 5620 5616 5612 5609
5728 5724 5721 5718 5716 5714 5712 5711 5709 5708 5707 5706 5705 5705 5704 5702 5701 5699 5697 5695 5693 5690 5688 5686 5683 5681 5679 5676 5673 5670 5666 5662 5658 5653 5648 5643 5637 5632 5627 5623 5619 5615 5612 5609
5727 5724 5720 5717 5715 5713 5711 5710 5709 5708 5707 5706 5705 5704 5702 5701 5699 5697 5695 5693 5690 5688 5685 5683 5681 5678 5676 5673 5671 5667 5664 5660 5656 5651 5647 5642 5637 5632 5627 5623 5619 5616 5614 5611
5727 5724 5720 5717 5714 5712 5711 5709 5708 5707 5706 5705 5704 5703 5701 5700 5698 5696 5693 5691 5688 5686 5683 5681 5678 5676 5674 5671 5668 5665 5662 5658 5655 5650 5646 5642 5637 5633 5629 5625 5622 5619 5617 5615
5727 5723 5720 5717 5714 5712 5710 5709 5708 5707 5706 5705 5704 5702 5701 5699 5697 5695 5692 5689 5687 5684 5681 5679 5676 5674 5671 5669 5666 5664 5661 5657 5654 5650 5646 5642 5638 5635 5631 5628 5625 5623 5621 5620
5726 5723 5720 5717 5714 5712 5710 5709 5708 5707 5706 5705 5703 5702 5700 5698 5696 5694 5691 5688 5685 5682 5679 5676 5674 5671 5669 5667 5665 5662 5660 5657 5654 5651 5648 5644 5641 5638 5635 5632 5629 5627 5626 5624
5726 5723 5720 5717 5714 5712 5710 5709 5708 5707 5706 5705 5703 5702 5700 5698 5695 5693 5690 5686 5683 5680 5677 5674 5671 5669 5667 5665 5663 5661 5659 5657 5654 5652 5649 5646 5644 5641 5638 5636 5634 5632 5631 5629
5726 5723 5719 5716 5714 5712 5710 5709 5708 5707 5706 5705 5704 5702 5700 5698 5695 5692 5689 5686 5682 5679 5676 5673 5669 5667 5665 5663 5662 5661 5659 5657 5655 5653 5651 5648 5646 5644 5642 5640 5638 5637 5635 5634
5725 5722 5719 5716 5714 5712 5711 5710 5709 5708 5707 5705 5704 5702 5700 5698 5695 5692 5689 5685 5682 5679 5675 5672 5669 5667 5665 5663 5662 5660 5659 5657 5655 5654 5652 5650 5648 5647 5645 5643 5642 5641 5640 5639
5725 5722 5719 5716 5714 5712 5711 5710 5709 5708 5707 5706 5704 5703 5701 5698 5695 5692 5689 5685 5682 5679 5675 5672 5669 5667 5665 5663 5661 5660 5659 5657 5656 5654 5653 5651 5650 5649 5647 5646 5645 5644 5643 5642
5724 5721 5718 5716 5714 5712 5711 5710 5709 5708 5707 5706 5705 5703 5701 5699 5696 5693 5690 5686 5683 5680 5676 5673 5670 5667 5665 5663 5661 5660 5658 5657 5656 5655 5653 5652 5651 5650 5649 5648 5647 5646 5645 5645
5723 5720 5718 5715 5713 5712 5710 5710 5709 5708 5707 5707 5705 5704 5702 5700 5697 5694 5691 5688 5684 5681 5678 5675 5672 5668 5666 5663 5661 5660 5658 5657 5656 5655 5654 5653 5652 5650 5650 5649 5648 5648 5647 5646
5721 5719 5717 5715 5713 5711 5710 5709 5709 5708 5707 5707 5706 5704 5703 5701 5698 5696 5693 5689 5686 5683 5680 5677 5673 5670 5667 5664 5662 5660 5659 5657 5656 5655 5654 5653 5652 5651 5650 5650 5649 5649 5648 5648
5719 5717 5716 5714 5712 5711 5709 5709 5708 5708 5707 5707 5706 5705 5703 5702 5700 5697 5695 5691 5688 5685 5682 5679 5676 5673 5669 5666 5664 5662 5660 5658 5657 5655 5654 5653 5652 5652 5651 5650 5650 5650 5649 5649
5717 5716 5714 5712 5711 5710 5709 5708 5707 5707 5707 5707 5706 5705 5704 5702 5701 5699 5696 5694 5691 5688 5685 5682 5679 5676 5673 5670 5667 5665 5663 5660 5659 5657 5656 5655 5654 5653 5652 5652 5652 5651 5651 5651
5714 5713 5712 5711 5709 5708 5707 5706 5706 5706 5706 5706 5706 5705 5704 5703 5701 5700 5698 5696 5693 5690 5687 5684 5682 5679 5676 5674 5671 5668 5666 5664 5662 5660 5658 5657 5656 5656 5655 5654 5654 5654 5653 5653